Back to catalog

STARLINK-34587

AliveCommunicationsVLEO
NORAD 64735·PAYLOAD·🇺🇸 United States

Launched Jul 2, 2025 from Cape Canaveral Space Force Station

Loading…

Next Passes (next 24 hours)

TLE

FreshSource: CelesTrak SupGP

Epoch: Sep 15, 2026, 03:02 UTC

1 64735C 25144M   26258.12687500  .00039055  00000+0  11538-2 0  2582
2 64735  53.1609  20.6636 0001200  90.7550 215.7028 15.34372469    13

Track STARLINK-34587 in real time with AllMySat

Download on the App Store